Theta_e
321 325 328 331 331 327 323 324 326 328 330 331 329 329 328 329 330 333 334 333 331 330 329 328 328 328 326 326 325 326 325 326 325 321 320 319 320 317 315 313 308 302 303
318 322 326 329 330 329 327 325 325 325 327 328 329 329 329 330 330 333 334 334 332 331 328 329 327 327 324 325 324 323 324 323 323 317 317 312 314 316 312 310 304 301 302
313 318 323 326 330 330 331 329 328 327 327 327 328 328 331 332 330 331 334 334 332 331 330 327 328 327 326 327 326 325 323 321 321 320 316 310 307 306 311 306 303 299 300
311 316 320 324 328 330 334 334 333 330 329 328 327 328 328 327 330 332 334 333 333 331 330 328 327 327 329 327 328 325 324 321 319 318 315 315 311 302 300 303 301 298 297
311 313 318 323 326 331 332 334 334 334 332 330 328 329 329 331 332 332 332 332 333 333 332 331 330 329 328 327 323 323 321 321 320 317 314 310 306 306 300 295 296 297 296
311 312 317 322 325 329 332 333 333 333 334 332 331 330 330 331 331 331 330 331 331 330 331 331 330 328 325 322 320 318 318 318 318 315 311 305 302 300 296 295 295 293 295
312 311 313 318 321 325 328 330 332 330 332 333 332 331 331 332 331 332 331 330 328 327 327 327 323 322 319 315 313 313 313 314 310 305 301 300 298 297 296 294 293 292 294
309 309 311 315 320 322 325 327 328 328 331 332 333 333 333 333 333 333 332 330 328 326 327 324 321 318 313 309 308 307 306 306 303 300 299 296 296 296 295 294 293 291 292
306 308 309 310 315 319 321 324 325 326 328 330 332 333 333 332 332 333 334 331 330 326 323 320 314 310 307 305 304 301 299 301 300 298 297 296 294 295 294 294 294 291 288
309 306 305 306 308 311 315 319 322 323 325 328 330 331 331 332 332 333 332 330 328 321 317 313 310 304 302 301 300 297 298 297 296 296 295 294 293 293 293 293 292 292 290
302 304 305 305 305 307 308 309 314 318 321 323 326 328 329 330 330 330 330 329 325 316 313 309 306 303 298 298 298 296 296 294 293 294 293 292 292 291 291 292 291 291 290
301 302 303 303 304 305 306 306 308 310 315 320 324 326 328 328 327 326 326 323 318 313 312 306 302 298 296 295 295 294 293 292 291 291 291 289 290 289 290 290 290 290 289
302 303 304 303 304 305 306 306 307 307 310 315 321 323 324 324 323 323 319 311 309 306 303 300 299 296 294 293 294 292 292 292 291 290 289 288 288 288 288 289 289 289 287
301 302 303 304 304 304 305 306 307 308 309 309 314 319 318 318 318 315 310 306 303 301 298 299 297 294 293 292 291 291 290 290 290 290 290 288 288 288 288 288 288 287 287
301 302 303 304 304 304 305 306 307 308 309 308 309 312 314 312 307 303 301 299 298 298 296 295 292 291 291 290 289 289 289 289 288 288 287 288 287 288 289 287 287 287 286
301 302 303 303 303 303 304 305 306 307 307 307 307 308 306 301 299 297 294 292 292 291 292 289 289 288 289 291 291 289 288 287 286 286 286 286 284 285 286 286 287 288 285
301 301 302 303 304 304 304 304 305 306 304 303 299 297 294 293 292 291 291 289 288 289 287 288 287 286 286 291 290 289 287 286 286 286 285 284 284 285 285 286 286 286 287
303 302 302 303 305 305 304 304 305 303 299 298 295 293 293 291 288 288 288 288 287 286 286 285 286 286 286 290 289 287 286 286 286 285 285 284 284 284 284 284 284 284 284
302 301 302 303 303 304 303 302 298 297 296 295 294 292 291 288 287 287 286 285 284 284 285 285 286 286 286 290 288 286 285 284 284 284 284 284 283 284 285 284 283 283 284
300 300 301 302 301 302 301 296 295 294 294 294 293 291 290 288 287 286 285 284 285 284 283 284 285 286 286 289 288 286 285 283 282 282 282 282 283 284 284 283 283 281 283
296 298 300 299 299 298 294 293 293 292 293 291 289 288 288 287 288 286 284 284 284 282 283 283 284 285 286 287 288 287 284 283 282 281 281 281 283 284 284 285 283 283 284
294 294 297 296 295 293 292 291 291 291 288 288 287 286 286 286 286 285 284 284 283 283 282 281 281 283 285 286 288 286 285 285 283 282 282 282 283 283 284 284 285 285 284
290 290 290 290 289 288 289 288 289 287 286 285 284 285 286 285 285 284 283 282 283 281 280 280 280 279 281 284 287 286 285 285 283 283 282 283 283 284 284 284 284 282 280
285 286 286 286 285 286 286 286 286 285 285 285 285 285 285 285 285 284 283 283 282 281 280 280 279 279 279 281 283 283 283 283 282 282 282 282 282 281 281 280 281 279 279
284 284 283 283 282 284 284 284 284 285 284 285 284 284 284 284 283 283 283 282 283 283 281 281 281 278 277 279 282 281 281 281 281 281 280 278 278 277 278 278 277 277 276
281 281 280 280 280 281 280 280 282 284 284 284 283 283 283 282 282 281 279 281 282 284 285 284 283 281 282 282 282 282 282 282 282 279 278 277 277 276 276 275 275 274 274
Wind_Speed
13 15 17 17 17 17 17 17 16 16 12 9 9 8 8 8 7 7 8 10 9 10 7 6 6 6 5 3 3 2 3 1 2 4 2 4 4 4 4 5 4 7 6
14 15 18 18 19 18 18 16 17 17 13 10 8 8 9 8 8 7 9 11 10 11 9 8 6 6 3 4 5 4 1 1 2 3 3 2 3 3 4 4 4 6 5
15 16 18 20 19 19 18 17 18 18 16 15 10 8 8 7 8 8 8 10 12 11 10 9 6 6 5 5 6 6 5 2 1 1 2 2 1 1 4 4 5 5 4
17 16 19 20 20 19 18 19 18 18 17 17 13 16 11 10 9 10 9 9 12 12 11 9 8 8 6 7 4 4 2 3 3 2 1 1 2 1 3 4 3 3 3
19 19 18 20 20 19 18 17 18 18 18 18 17 14 14 11 9 10 12 12 11 12 11 10 10 8 5 4 6 5 4 3 2 3 2 1 1 1 1 1 1 2 4
21 19 17 15 16 17 17 18 20 20 19 19 20 19 17 14 12 11 10 8 7 8 11 11 9 7 6 7 6 5 5 4 3 2 3 3 2 2 2 1 2 2 2
19 19 19 17 17 19 19 18 21 21 20 20 19 20 18 17 16 14 10 10 9 6 9 11 10 7 6 6 6 5 5 5 5 5 3 2 3 3 2 1 0 3 1
11 14 16 16 18 20 21 20 21 21 20 21 21 19 20 13 13 14 10 9 10 11 12 10 9 10 10 9 7 5 4 6 5 6 4 4 4 2 2 1 2 4 4
9 9 12 14 16 17 19 20 19 19 20 22 18 19 17 18 14 16 13 10 11 9 11 11 10 10 10 11 10 6 7 6 5 6 5 4 4 3 2 1 1 2 2
10 9 7 10 11 13 13 15 17 18 17 17 17 16 17 17 16 14 15 13 11 10 11 11 11 10 10 9 10 8 7 8 5 5 7 6 4 4 3 2 2 2 1
6 7 6 8 8 8 9 13 15 17 15 15 15 15 15 16 14 13 12 11 12 12 12 12 13 13 11 10 9 9 9 9 8 6 7 6 6 4 4 2 2 2 1
4 5 6 5 7 8 9 11 11 13 15 15 15 16 14 13 14 14 12 9 11 11 13 13 13 12 12 12 10 12 11 10 9 8 8 8 5 6 5 4 4 2 2
5 4 3 5 6 7 7 9 10 11 10 12 14 14 15 15 15 14 11 9 10 11 11 12 13 14 13 12 11 11 11 10 9 9 8 9 8 6 5 4 4 3 3
5 5 4 5 5 5 7 7 8 9 7 9 10 11 9 9 10 9 10 10 10 11 12 12 13 13 13 11 12 11 11 10 8 7 7 8 7 7 7 5 4 4 3
8 4 4 4 4 5 6 6 7 7 7 9 8 8 5 6 6 7 7 7 8 9 10 10 9 8 12 10 13 12 11 11 10 7 6 5 5 6 6 4 5 5 3
10 8 5 4 5 6 7 8 8 7 6 7 6 5 4 4 4 6 7 7 7 8 9 11 11 12 8 14 16 13 11 10 10 9 7 5 6 7 7 6 3 4 4
10 11 13 8 5 6 7 9 9 7 7 6 5 5 5 6 5 5 7 8 9 9 9 10 11 11 5 19 18 14 9 9 8 9 8 6 4 6 5 8 9 8 7
13 10 10 12 9 4 6 7 7 8 7 5 5 6 6 5 5 6 7 7 8 10 10 9 8 9 8 18 17 14 9 7 7 7 7 7 7 6 5 5 5 5 4
8 8 9 10 8 4 3 5 6 6 8 7 6 6 6 5 5 3 5 6 7 7 7 8 10 11 10 18 20 13 9 8 7 6 6 6 6 9 10 5 5 4 4
8 9 9 7 6 4 1 5 4 5 6 6 6 6 6 7 6 6 6 3 6 7 8 8 6 7 11 17 18 12 7 8 6 5 5 7 6 10 11 7 4 5 4
8 10 8 7 7 7 3 2 3 4 2 5 5 5 5 7 7 6 3 5 6 7 6 7 6 7 9 12 18 15 7 7 6 6 5 4 11 11 12 10 5 5 2
8 9 7 7 8 5 3 3 4 3 3 4 4 5 6 4 5 9 6 6 7 7 7 7 5 4 5 10 16 15 9 11 7 6 5 5 12 11 11 6 9 10 7
9 8 6 6 8 7 7 6 5 2 4 4 3 2 4 5 6 8 9 7 8 7 6 6 7 5 3 5 15 15 11 11 4 4 7 9 11 12 6 8 9 4 2
9 9 9 10 10 9 7 5 4 3 4 3 3 4 4 3 3 2 3 6 7 8 8 9 8 7 6 6 6 6 7 10 6 8 5 6 6 6 3 2 4 3 3
6 7 8 8 9 9 10 10 8 5 3 3 3 3 3 3 3 2 3 3 4 7 8 8 8 10 9 9 12 11 7 6 7 6 4 4 4 3 3 3 3 2 2
5 5 6 6 5 5 6 7 7 4 3 3 2 2 2 2 2 3 3 4 1 5 7 8 7 4 7 16 18 17 14 13 13 4 4 5 4 4 4 3 3 2 4
Wind_Direction
225 205 207 200 204 201 195 190 188 196 190 193 195 205 204 207 211 207 199 201 194 196 194 192 192 189 203 203 218 270 273 210 335 297 52 131 144 78 112 80 45 42 54
222 209 206 205 205 202 203 196 192 193 193 190 198 203 208 210 215 202 206 213 197 198 197 203 192 191 188 205 195 201 208 112 340 328 299 179 150 157 82 74 55 44 54
229 215 210 205 203 207 203 203 198 195 194 195 192 201 208 212 216 210 205 205 205 201 197 194 192 183 194 213 203 199 198 172 134 56 304 218 241 110 143 95 70 49 67
236 225 213 211 205 204 203 207 203 199 200 198 196 196 199 196 205 210 205 202 205 205 205 198 194 197 202 218 188 167 180 152 197 136 222 310 11 281 165 140 104 88 58
227 224 216 211 212 200 203 202 207 207 202 199 205 200 203 202 200 204 205 200 199 203 199 200 203 210 207 168 152 166 166 192 177 200 170 159 108 98 138 175 82 118 79
212 220 216 210 212 208 204 201 206 207 205 203 205 209 209 202 202 199 206 198 194 189 198 195 195 194 173 158 153 149 168 194 174 152 169 182 181 168 134 211 290 14 67
217 216 210 201 207 207 205 206 205 209 207 206 207 210 213 211 212 207 200 193 196 186 190 182 173 170 153 138 137 147 162 173 150 151 159 105 78 65 86 83 155 265 177
216 229 222 212 205 207 205 207 210 212 205 208 210 210 214 213 212 212 205 202 203 201 186 184 173 157 147 140 143 144 150 145 143 142 131 125 115 117 120 151 182 209 207
251 244 228 221 216 211 211 208 213 216 211 212 211 212 212 214 213 212 209 202 201 198 179 172 159 154 153 151 148 149 152 147 136 134 132 127 115 106 108 122 267 288 204
256 228 235 238 231 225 219 215 216 218 219 218 214 215 213 214 215 212 207 202 194 166 173 168 159 153 148 154 151 145 154 139 139 142 144 138 141 134 124 144 192 265 317
313 293 258 236 237 236 220 218 214 215 217 217 218 214 215 212 211 214 210 202 175 173 176 173 164 161 154 155 155 147 149 146 147 150 154 146 147 149 152 175 194 198 244
330 299 292 279 239 235 231 233 225 220 218 212 213 214 212 208 207 207 203 179 179 174 177 172 162 155 161 159 164 159 158 157 157 160 156 154 164 156 162 173 194 196 171
0 335 324 288 264 243 233 235 234 227 226 220 214 211 205 202 204 199 180 155 168 169 169 165 170 163 166 162 163 159 153 155 161 164 165 159 166 162 167 174 176 184 191
313 341 324 313 280 267 265 252 240 239 210 222 222 215 202 200 192 180 170 169 165 167 168 175 169 167 161 162 147 155 150 149 155 158 161 160 170 172 167 169 170 175 185
304 306 303 306 282 258 238 233 236 222 216 221 215 224 183 183 154 147 150 145 160 169 169 158 153 160 154 160 152 158 154 151 149 149 147 156 161 152 159 164 170 183 194
288 303 297 259 264 263 239 223 216 195 207 221 230 223 153 142 146 139 135 133 150 149 154 162 156 153 170 159 155 156 152 149 152 154 149 146 145 164 172 198 208 207 196
289 289 296 302 251 243 226 227 208 177 195 200 137 138 148 158 158 153 155 155 157 155 158 163 164 148 164 161 155 147 144 147 155 153 155 154 167 165 172 203 216 236 249
290 292 285 288 303 207 219 219 192 171 164 175 174 163 163 173 168 159 167 158 157 163 162 152 155 147 158 157 155 139 135 137 143 149 159 160 162 173 169 184 203 219 224
311 324 311 309 309 266 217 202 160 174 161 170 175 162 153 139 149 171 169 156 147 142 154 159 161 154 154 164 156 142 137 139 146 149 150 149 149 171 184 188 206 230 240
2 336 327 335 327 338 190 138 191 187 194 177 162 146 147 151 174 166 175 175 163 155 139 136 135 148 143 162 165 146 140 146 146 137 134 160 157 178 194 211 191 238 247
358 348 358 14 15 24 68 194 176 233 191 128 131 137 149 158 154 146 130 149 139 128 133 131 128 142 149 163 173 163 155 157 151 157 166 170 188 193 212 209 211 238 249
22 13 20 31 28 32 54 22 357 27 69 103 130 137 135 141 142 142 136 142 146 149 147 142 129 106 136 164 179 176 167 161 156 166 158 166 186 199 213 216 246 260 268
17 9 24 36 27 16 30 16 357 64 105 99 88 84 110 140 156 153 152 150 160 164 158 164 157 153 156 170 175 176 170 169 146 139 161 171 191 212 212 246 251 246 227
12 8 21 28 25 14 23 21 4 50 89 108 111 115 131 130 120 113 169 173 183 179 174 174 173 163 166 170 163 157 165 175 162 166 166 191 196 204 181 188 223 213 226
19 37 42 40 25 16 19 16 9 14 53 95 103 113 113 150 146 136 178 214 240 214 191 192 176 166 178 188 178 170 173 173 172 147 164 187 197 172 196 206 211 217 228
28 40 50 50 28 40 54 30 18 14 26 43 61 90 113 139 130 130 84 9 217 205 212 189 166 152 158 172 182 186 186 181 179 175 202 203 181 198 203 206 212 212 229